Location: Bremen
(53.0793°N, 8.8017°E)
Time: 22:00:17
(UTC+02:00)

Vanguard 2 Rocket - Pass Details

Date: 13 April 2024
Orbit: 556 x 3304 km, 32.9° (Epoch: 20 May)

Event Time Altitude Azimuth Distance (km) Brightness Sun altitude
Rises 22:11:53 0° 186° (S) 6,863 11.0 -15.2°
Reaches altitude 10° 22:19:19 10° 168° (SSE) 6,139 10.6 -16.1°
Enters shadow 22:23:30 14° 156° (SSE) 5,878 10.4 -16.5°
Maximum altitude 22:29:03 16° 138° (SE) 5,731 - -17.1°
Drops below altitude 10° 22:38:35 10° 108° (ESE) 6,064 - -18.1°
Exits shadow 22:42:27 - 98° (E) 6,398 10.8 -18.5°
Sets 22:45:41 0° 91° (E) 6,750 10.9 -18.9°
